| time (UTC) | temp C | wind direction | speed KPH | gust KPH | rain 1hr cm | rain 24hr cm | rain mn cm | humidity % | barometer mb |
| 20260504221203 | 16 | 140 | 1.6 | 3.2 | 0.00 | 0.00 | 0.08 | 87 | 1026.0 |
| 20260504220703 | 16 | 103 | 3.2 | 3.2 | 0.00 | 0.00 | 0.08 | 86 | 1026.0 |
| 20260504220203 | 16 | 79 | 1.6 | 3.2 | 0.00 | 0.00 | 0.08 | 86 | 1025.0 |
| 20260504215704 | 16 | 118 | 1.6 | 3.2 | 0.00 | 0.00 | 0.08 | 86 | 1025.0 |
| 20260504215202 | 16 | 79 | 1.6 | 3.2 | 0.00 | 0.00 | 0.08 | 86 | 1025.0 |
| 20260504214704 | 16 | 121 | 1.6 | 3.2 | 0.00 | 0.00 | 0.08 | 86 | 1025.0 |
| 20260504214202 | 16 | 82 | 1.6 | 3.2 | 0.00 | 0.00 | 0.08 | 85 | 1025.0 |
| 20260504213701 | 16 | 71 | 1.6 | 4.8 | 0.00 | 0.00 | 0.08 | 85 | 1025.0 |
| 20260504213204 | 16 | 179 | 1.6 | 4.8 | 0.00 | 0.00 | 0.08 | 85 | 1025.0 |
| 20260504212703 | 16 | 99 | 1.6 | 4.8 | 0.00 | 0.00 | 0.08 | 84 | 1025.0 |
| 20260504212203 | 17 | 83 | 1.6 | 3.2 | 0.00 | 0.00 | 0.08 | 84 | 1025.0 |
| 20260504211702 | 17 | 115 | 1.6 | 3.2 | 0.00 | 0.00 | 0.08 | 84 | 1025.0 |
| 20260504211203 | 17 | 164 | 0.0 | 0.0 | 0.00 | 0.00 | 0.08 | 83 | 1025.0 |
| 20260504210704 | 17 | 49 | 1.6 | 3.2 | 0.00 | 0.00 | 0.08 | 83 | 1025.0 |
| 20260504210206 | 17 | 340 | 1.6 | 3.2 | 0.00 | 0.00 | 0.08 | 82 | 1025.0 |
| 20260504205703 | 17 | 68 | 1.6 | 4.8 | 0.00 | 0.00 | 0.08 | 82 | 1025.0 |
| 20260504205203 | 17 | 67 | 1.6 | 4.8 | 0.00 | 0.00 | 0.08 | 81 | 1025.0 |
| 20260504204702 | 17 | 68 | 3.2 | 4.8 | 0.00 | 0.00 | 0.08 | 81 | 1025.0 |
| 20260504204202 | 18 | 32 | 3.2 | 6.4 | 0.00 | 0.00 | 0.08 | 80 | 1025.0 |
| 20260504203701 | 18 | 345 | 3.2 | 4.8 | 0.00 | 0.00 | 0.08 | 79 | 1025.0 |
| 20260504203203 | 18 | 131 | 1.6 | 3.2 | 0.00 | 0.00 | 0.08 | 78 | 1025.0 |
| 20260504202703 | 18 | 129 | 1.6 | 4.8 | 0.00 | 0.00 | 0.08 | 76 | 1025.0 |
| 20260504202204 | 19 | 73 | 0.0 | 0.0 | 0.00 | 0.00 | 0.08 | 76 | 1025.0 |
| 20260504201702 | 19 | 43 | 0.0 | 0.0 | 0.00 | 0.00 | 0.08 | 74 | 1025.0 |
| 20260504201203 | 19 | 62 | 0.0 | 0.0 | 0.00 | 0.00 | 0.08 | 74 | 1025.0 |
| 20260504200702 | 19 | 209 | 0.0 | 0.0 | 0.00 | 0.00 | 0.08 | 75 | 1025.0 |
| 20260504200204 | 19 | 20 | 1.6 | 3.2 | 0.00 | 0.00 | 0.08 | 76 | 1025.0 |
| 20260504195702 | 19 | 135 | 1.6 | 3.2 | 0.00 | 0.00 | 0.08 | 75 | 1025.0 |
| 20260504195204 | 19 | 76 | 1.6 | 3.2 | 0.00 | 0.00 | 0.08 | 75 | 1025.0 |
| 20260504194703 | 19 | 90 | 1.6 | 4.8 | 0.00 | 0.00 | 0.08 | 75 | 1025.0 |
| 20260504194203 | 19 | 78 | 1.6 | 4.8 | 0.00 | 0.00 | 0.08 | 75 | 1025.0 |
| 20260504193702 | 19 | 50 | 4.8 | 4.8 | 0.00 | 0.00 | 0.08 | 74 | 1025.0 |
| 20260504193204 | 19 | 67 | 3.2 | 8.0 | 0.00 | 0.00 | 0.08 | 75 | 1025.0 |
| 20260504192703 | 19 | 56 | 3.2 | 8.0 | 0.00 | 0.00 | 0.08 | 75 | 1024.0 |
| 20260504192208 | 19 | 62 | 3.2 | 6.4 | 0.00 | 0.00 | 0.08 | 75 | 1024.0 |
| 20260504191702 | 19 | 91 | 3.2 | 6.4 | 0.00 | 0.00 | 0.08 | 74 | 1024.0 |
| 20260504191204 | 19 | 17 | 3.2 | 6.4 | 0.00 | 0.00 | 0.08 | 74 | 1024.0 |
| 20260504190702 | 19 | 31 | 3.2 | 8.0 | 0.00 | 0.00 | 0.08 | 74 | 1024.0 |
| 20260504190204 | 19 | 333 | 3.2 | 8.0 | 0.00 | 0.00 | 0.08 | 73 | 1024.0 |
| 20260504185705 | 20 | 140 | 0.0 | 0.0 | 0.00 | 0.00 | 0.08 | 73 | 1025.0 |
| 20260504185203 | 20 | 3 | 3.2 | 6.4 | 0.00 | 0.00 | 0.08 | 73 | 1025.0 |
| 20260504184703 | 20 | 35 | 3.2 | 6.4 | 0.00 | 0.00 | 0.08 | 73 | 1025.0 |
| 20260504184203 | 18 | 345 | 3.2 | 6.4 | 0.00 | 0.00 | 0.08 | 72 | 1025.0 |
| 20260504183704 | 18 | 345 | 3.2 | 6.4 | 0.00 | 0.00 | 0.08 | 75 | 1025.0 |
| 20260504183202 | 18 | 2 | 3.2 | 6.4 | 0.00 | 0.00 | 0.08 | 75 | 1025.0 |
| 20260504182703 | 18 | 5 | 3.2 | 4.8 | 0.00 | 0.00 | 0.08 | 76 | 1025.0 |
| 20260504182204 | 18 | 133 | 1.6 | 4.8 | 0.00 | 0.00 | 0.08 | 73 | 1025.0 |
| 20260504181704 | 18 | 244 | 0.0 | 0.0 | 0.00 | 0.00 | 0.08 | 75 | 1025.0 |
| 20260504181203 | 18 | 35 | 3.2 | 6.4 | 0.00 | 0.00 | 0.08 | 77 | 1025.0 |
| 20260504180705 | 18 | 166 | 3.2 | 6.4 | 0.00 | 0.00 | 0.08 | 78 | 1025.0 |
| 20260504180204 | 18 | 16 | 6.4 | 6.4 | 0.00 | 0.00 | 0.08 | 77 | 1025.0 |
| 20260504175704 | 18 | 105 | 4.8 | 8.0 | 0.00 | 0.00 | 0.08 | 77 | 1025.0 |
| 20260504175204 | 18 | 62 | 3.2 | 4.8 | 0.00 | 0.00 | 0.08 | 75 | 1025.0 |
| 20260504174704 | 17 | 286 | 3.2 | 8.0 | 0.00 | 0.00 | 0.08 | 76 | 1025.0 |
| 20260504174204 | 17 | 52 | 3.2 | 8.0 | 0.00 | 0.00 | 0.08 | 78 | 1025.0 |
| 20260504173703 | 17 | 113 | 6.4 | 8.0 | 0.00 | 0.00 | 0.08 | 79 | 1025.0 |
| 20260504173203 | 17 | 99 | 4.8 | 8.0 | 0.00 | 0.00 | 0.08 | 79 | 1025.0 |
| 20260504172704 | 17 | 34 | 4.8 | 8.0 | 0.00 | 0.00 | 0.08 | 79 | 1025.0 |
| 20260504172203 | 17 | 92 | 4.8 | 6.4 | 0.00 | 0.00 | 0.08 | 79 | 1025.0 |
| 20260504171703 | 16 | 34 | 3.2 | 6.4 | 0.00 | 0.00 | 0.08 | 80 | 1025.0 |
| 20260504171203 | 16 | 109 | 3.2 | 6.4 | 0.00 | 0.00 | 0.08 | 81 | 1026.0 |
| 20260504170704 | 16 | 103 | 4.8 | 8.0 | 0.00 | 0.00 | 0.08 | 81 | 1026.0 |
| 20260504170202 | 16 | 28 | 4.8 | 8.0 | 0.00 | 0.00 | 0.08 | 81 | 1026.0 |
| 20260504160203 | 16 | 269 | 0.0 | 0.0 | 0.00 | 0.00 | 0.08 | 84 | 1027.0 |
| 20260504150704 | 15 | 31 | 6.4 | 8.0 | 0.00 | 0.00 | 0.08 | 84 | 1027.0 |
| 20260504150203 | 15 | 47 | 3.2 | 6.4 | 0.00 | 0.00 | 0.08 | 84 | 1027.0 |
| 20260504141207 | 16 | 5 | 4.8 | 4.8 | 0.00 | 0.00 | 0.08 | 81 | 1028.0 |
| 20260504140704 | 15 | 2 | 4.8 | 9.7 | 0.00 | 0.00 | 0.08 | 82 | 1028.0 |
| 20260504140203 | 15 | 38 | 6.4 | 9.7 | 0.00 | 0.00 | 0.08 | 82 | 1028.0 |
| 20260504130704 | 14 | 119 | 3.2 | 4.8 | 0.00 | 0.00 | 0.08 | 88 | 1028.0 |
| 20260504130203 | 13 | 352 | 4.8 | 8.0 | 0.03 | 0.00 | 0.08 | 87 | 1028.0 |
| 20260504120203 | 12 | 52 | 8.0 | 12.9 | 0.03 | 0.00 | 0.03 | 90 | 1027.0 |
| 20260504110704 | 12 | 92 | 6.4 | 9.7 | 0.00 | 0.00 | 0.00 | 90 | 1027.0 |
| 20260504110203 | 12 | 97 | 3.2 | 3.2 | 0.00 | 0.00 | 0.00 | 90 | 1027.0 |
| 20260504100204 | 11 | 64 | 3.2 | 6.4 | 0.00 | 0.00 | 0.00 | 91 | 1027.0 |
| 20260504081704 | 11 | 105 | 3.2 | 6.4 | 0.00 | 0.00 | 0.00 | 92 | 1026.0 |
| 20260504081204 | 11 | 53 | 3.2 | 6.4 | 0.00 | 0.00 | 0.00 | 92 | 1026.0 |
| 20260504080703 | 11 | 95 | 4.8 | 6.4 | 0.00 | 0.00 | 0.00 | 91 | 1025.0 |
| 20260504080203 | 11 | 71 | 1.6 | 4.8 | 0.00 | 0.00 | 0.00 | 91 | 1025.0 |
| 20260504070201 | 11 | 107 | 3.2 | 4.8 | 0.00 | 0.00 | 0.00 | 92 | 1025.0 |
| 20260504060207 | 11 | 29 | 3.2 | 6.4 | 0.00 | 0.00 | 0.00 | 91 | 1025.0 |
| 20260504050702 | 12 | 140 | 1.6 | 4.8 | 0.00 | 0.00 | 0.00 | 90 | 1027.0 |
| 20260504050203 | 12 | 41 | 1.6 | 4.8 | 0.00 | 0.00 | 0.00 | 89 | 1027.0 |
| 20260504045703 | 12 | 10 | 1.6 | 4.8 | 0.00 | 0.00 | 0.00 | 89 | 1027.0 |
| 20260504045202 | 12 | 46 | 3.2 | 8.0 | 0.00 | 0.00 | 0.00 | 89 | 1027.0 |
| 20260504044701 | 12 | 73 | 3.2 | 6.4 | 0.00 | 0.00 | 0.00 | 89 | 1027.0 |
| 20260504044202 | 12 | 35 | 4.8 | 4.8 | 0.00 | 0.00 | 0.00 | 89 | 1027.0 |
| 20260504043701 | 12 | 121 | 3.2 | 8.0 | 0.00 | 0.00 | 0.00 | 89 | 1027.0 |
| 20260504043202 | 12 | 74 | 3.2 | 6.4 | 0.00 | 0.00 | 0.00 | 89 | 1027.0 |
| 20260504042701 | 12 | 12 | 3.2 | 6.4 | 0.00 | 0.00 | 0.00 | 89 | 1027.0 |
| 20260504042202 | 12 | 54 | 3.2 | 6.4 | 0.00 | 0.00 | 0.00 | 89 | 1027.0 |
| 20260504041703 | 12 | 73 | 4.8 | 6.4 | 0.00 | 0.00 | 0.00 | 89 | 1027.0 |
| 20260504041202 | 12 | 56 | 4.8 | 11.3 | 0.00 | 0.00 | 0.00 | 89 | 1027.0 |
| 20260504040704 | 12 | 141 | 4.8 | 11.3 | 0.00 | 0.00 | 0.00 | 90 | 1027.0 |
| 20260504040202 | 12 | 14 | 8.0 | 11.3 | 0.00 | 0.00 | 0.00 | 90 | 1027.0 |
| 20260504035702 | 12 | 116 | 4.8 | 9.7 | 0.00 | 0.00 | 0.00 | 90 | 1027.0 |
| 20260504035201 | 12 | 108 | 6.4 | 9.7 | 0.00 | 0.00 | 0.00 | 90 | 1027.0 |
| 20260504034701 | 12 | 48 | 9.7 | 9.7 | 0.00 | 0.00 | 0.00 | 90 | 1027.0 |
| 20260504034201 | 12 | 61 | 6.4 | 8.0 | 0.00 | 0.00 | 0.00 | 90 | 1027.0 |
| 20260504033701 | 12 | 93 | 4.8 | 4.8 | 0.00 | 0.00 | 0.00 | 90 | 1027.0 |
| 20260504033201 | 11 | 108 | 4.8 | 9.7 | 0.00 | 0.00 | 0.00 | 90 | 1027.0 |
| 20260504032701 | 11 | 76 | 4.8 | 9.7 | 0.00 | 0.00 | 0.00 | 90 | 1027.0 |
| 20260504032203 | 11 | 52 | 4.8 | 6.4 | 0.00 | 0.00 | 0.00 | 90 | 1027.0 |
| 20260504031701 | 11 | 36 | 6.4 | 12.9 | 0.00 | 0.00 | 0.00 | 90 | 1027.0 |
| 20260504031203 | 11 | 73 | 3.2 | 6.4 | 0.00 | 0.00 | 0.00 | 90 | 1027.0 |
| 20260504030702 | 11 | 56 | 3.2 | 3.2 | 0.00 | 0.00 | 0.00 | 91 | 1027.0 |
| 20260504030201 | 11 | 144 | 4.8 | 8.0 | 0.00 | 0.00 | 0.08 | 91 | 1027.0 |
| 20260504025701 | 11 | 39 | 6.4 | 6.4 | 0.00 | 0.00 | 0.08 | 91 | 1027.0 |
| 20260504025201 | 11 | 52 | 4.8 | 6.4 | 0.00 | 0.00 | 0.08 | 91 | 1027.0 |
| 20260504024702 | 11 | 106 | 4.8 | 6.4 | 0.00 | 0.00 | 0.08 | 90 | 1027.0 |
| 20260504024201 | 11 | 99 | 8.0 | 11.3 | 0.00 | 0.00 | 0.08 | 90 | 1028.0 |
| 20260504023702 | 11 | 98 | 8.0 | 11.3 | 0.00 | 0.00 | 0.08 | 90 | 1028.0 |
| 20260504023201 | 11 | 67 | 9.7 | 11.3 | 0.00 | 0.00 | 0.08 | 89 | 1028.0 |
| 20260504022706 | 12 | 18 | 4.8 | 11.3 | 0.00 | 0.00 | 0.08 | 89 | 1028.0 |
| 20260504022203 | 12 | 6 | 4.8 | 11.3 | 0.00 | 0.00 | 0.08 | 89 | 1028.0 |
| 20260504021701 | 12 | 92 | 6.4 | 8.0 | 0.00 | 0.00 | 0.08 | 89 | 1028.0 |
| 20260504021203 | 12 | 120 | 4.8 | 8.0 | 0.00 | 0.00 | 0.08 | 89 | 1028.0 |
| 20260504020701 | 12 | 82 | 6.4 | 8.0 | 0.00 | 0.00 | 0.08 | 88 | 1028.0 |
| 20260504015701 | 11 | 115 | 8.0 | 11.3 | 0.00 | 0.00 | 0.08 | 89 | 1028.0 |
| 20260504015202 | 11 | 63 | 6.4 | 8.0 | 0.00 | 0.00 | 0.08 | 90 | 1028.0 |
| 20260504014701 | 11 | 123 | 1.6 | 4.8 | 0.00 | 0.00 | 0.08 | 90 | 1028.0 |
| 20260504014201 | 11 | 73 | 1.6 | 4.8 | 0.00 | 0.00 | 0.08 | 90 | 1028.0 |
| 20260504013701 | 11 | 118 | 0.0 | 0.0 | 0.00 | 0.00 | 0.08 | 90 | 1028.0 |
| 20260504013202 | 11 | 119 | 1.6 | 4.8 | 0.00 | 0.00 | 0.08 | 90 | 1028.0 |
| 20260504012701 | 11 | 72 | 1.6 | 3.2 | 0.00 | 0.00 | 0.08 | 89 | 1028.0 |
| 20260504012201 | 11 | 315 | 0.0 | 0.0 | 0.00 | 0.00 | 0.08 | 89 | 1028.0 |
| 20260504011701 | 11 | 272 | 1.6 | 3.2 | 0.00 | 0.00 | 0.08 | 89 | 1028.0 |
| 20260504011202 | 11 | 110 | 1.6 | 3.2 | 0.00 | 0.00 | 0.08 | 89 | 1028.0 |
| 20260504010702 | 11 | 113 | 0.0 | 0.0 | 0.00 | 0.00 | 0.08 | 89 | 1028.0 |
| 20260504010201 | 11 | 134 | 3.2 | 6.4 | 0.00 | 0.00 | 0.08 | 89 | 1028.0 |
| 20260504005701 | 11 | 85 | 4.8 | 6.4 | 0.00 | 0.00 | 0.08 | 89 | 1028.0 |
| 20260504004733 | 11 | 109 | 3.2 | 6.4 | 0.00 | 0.00 | 0.08 | 89 | 1028.0 |
| 20260504004201 | 11 | 112 | 4.8 | 4.8 | 0.00 | 0.00 | 0.08 | 89 | 1028.0 |
| 20260504003701 | 11 | 84 | 4.8 | 8.0 | 0.00 | 0.00 | 0.08 | 88 | 1028.0 |
| 20260504003202 | 11 | 43 | 4.8 | 6.4 | 0.00 | 0.00 | 0.08 | 88 | 1028.0 |
| 20260504002702 | 11 | 78 | 4.8 | 4.8 | 0.00 | 0.00 | 0.08 | 88 | 1028.0 |
| 20260504002201 | 11 | 85 | 3.2 | 8.0 | 0.00 | 0.00 | 0.08 | 88 | 1028.0 |
| 20260504001701 | 11 | 78 | 3.2 | 8.0 | 0.00 | 0.00 | 0.08 | 89 | 1028.0 |
| 20260504000701 | 11 | 71 | 0.0 | 0.0 | 0.00 | 0.00 | 0.08 | 89 | 1028.0 |
| 20260504000201 | 11 | 279 | 0.0 | 0.0 | 0.00 | 0.00 | 0.08 | 89 | 1028.0 |
| 20260503235701 | 11 | 115 | 0.0 | 0.0 | 0.00 | 0.00 | 0.08 | 88 | 1028.0 |
| 20260503235201 | 11 | 292 | 0.0 | 0.0 | 0.00 | 0.00 | 0.08 | 88 | 1028.0 |
| 20260503234701 | 11 | 16 | 0.0 | 0.0 | 0.00 | 0.00 | 0.08 | 88 | 1028.0 |
| 20260503234203 | 11 | 277 | 1.6 | 4.8 | 0.00 | 0.00 | 0.08 | 88 | 1028.0 |
| 20260503233701 | 11 | 213 | 0.0 | 0.0 | 0.00 | 0.00 | 0.08 | 88 | 1028.0 |
| 20260503233201 | 11 | 6 | 0.0 | 0.0 | 0.00 | 0.00 | 0.08 | 88 | 1028.0 |
| 20260503232701 | 11 | 115 | 1.6 | 4.8 | 0.00 | 0.00 | 0.08 | 89 | 1028.0 |
| 20260503232201 | 11 | 290 | 1.6 | 4.8 | 0.00 | 0.00 | 0.08 | 88 | 1028.0 |
| 20260503231701 | 11 | 70 | 1.6 | 4.8 | 0.00 | 0.00 | 0.08 | 88 | 1028.0 |
| 20260503231202 | 11 | 85 | 1.6 | 4.8 | 0.00 | 0.00 | 0.08 | 88 | 1028.0 |
| 20260503230702 | 11 | 100 | 1.6 | 3.2 | 0.00 | 0.00 | 0.08 | 88 | 1028.0 |
| 20260503230201 | 11 | 132 | 3.2 | 4.8 | 0.00 | 0.00 | 0.08 | 88 | 1028.0 |
| 20260503225701 | 11 | 199 | 1.6 | 3.2 | 0.00 | 0.00 | 0.08 | 88 | 1028.0 |
| 20260503225201 | 11 | 71 | 1.6 | 3.2 | 0.00 | 0.00 | 0.08 | 88 | 1028.0 |
| 20260503224701 | 11 | 291 | 1.6 | 3.2 | 0.00 | 0.00 | 0.08 | 88 | 1028.0 |
| 20260503224201 | 11 | 268 | 0.0 | 0.0 | 0.00 | 0.00 | 0.08 | 88 | 1028.0 |
| 20260503223701 | 11 | 12 | 1.6 | 3.2 | 0.00 | 0.00 | 0.08 | 88 | 1028.0 |
| 20260503223201 | 11 | 234 | 1.6 | 3.2 | 0.00 | 0.00 | 0.08 | 88 | 1028.0 |
| 20260503222701 | 11 | 56 | 1.6 | 3.2 | 0.00 | 0.00 | 0.08 | 88 | 1028.0 |
| 20260503222201 | 11 | 340 | 1.6 | 3.2 | 0.00 | 0.00 | 0.08 | 88 | 1028.0 |
| 20260503221701 | 11 | 134 | 1.6 | 3.2 | 0.00 | 0.00 | 0.08 | 88 | 1028.0 |